Find Starlink 34535

NORAD ID: 64698 Int'l Des: 2025-142 Owner: SPXS Country: US Constellation: starlink operational
LEOCIRCULAR

現在のビュー

3D地球を読み込み中...

About Starlink 34535

Starlink 34535 (NORAD 64698) is a starlink constellation satellite (v2 mini) launched Jun 28, 2025 by SPXS of US. It operates in LEO, CIRCULAR orbit with a mass of 575.00 kg.

Starlink 34535について

説明を読み込み中...

次回通過

Passes for default location (London). Set your location on the main map for personalized predictions.

高度履歴

Loading altitude history...

軌道要素

1 64698U 25142C 26193.77231443 .00001562 00000-0 13868-3 0 9992
2 64698 70.0020 359.1902 0002576 262.9289 97.1577 14.98332943 58208
Epoch: Jul 12, 2026 • Age: 6 hours

現在のステータス

高度 574.4 km
遠地点 / 近地点 N/A
速度 7.57 km/s
衛星直下点 -1.36°S, 114.04°W
打ち上げ日 Jun 28, 2025
運用期間 1 year
タイプ internet

技術仕様

分類 Payload
質量 575.00 kg
乾燥質量 530.00 kg
総質量 575.00 kg
長さ 0.30 m
直径 4.10 m
スパン 29.00 m
形状 Box + pan
製造者 SPXS
バスタイプ Starlink V2MO
フェーズステータス In Orbit
所有者/国 SPXS/US

Most Searched